Time,TemperatureF,DewpointF,PressureIn,WindDirection,WindDirectionDegrees,WindSpeedMPH,WindSpeedGustMPH,Humidity,HourlyPrecipIn,Conditions,Clouds,dailyrainin,SoftwareType,DateUTC
2013-03-28 00:00:00,47.1,22.8,30.21,North,-999,0.0,0.0,38,0.00,,,-99.99,FreeWX 2.05,2013-03-28 04:00:00,
2013-03-28 00:10:00,46.9,22.6,30.21,North,-999,0.0,0.0,38,0.00,,,-99.99,FreeWX 2.05,2013-03-28 04:10:00,
2013-03-28 00:20:00,46.9,23.4,30.21,North,-999,0.0,0.0,39,0.00,,,-99.99,FreeWX 2.05,2013-03-28 04:20:00,
2013-03-28 00:30:00,47.1,23.4,30.21,North,-999,0.0,0.0,39,0.00,,,-99.99,FreeWX 2.05,2013-03-28 04:30:00,
2013-03-28 00:40:00,47.1,23.4,30.21,North,-999,0.0,0.0,39,0.00,,,-99.99,FreeWX 2.05,2013-03-28 04:40:00,
2013-03-28 00:50:00,47.1,24.1,30.21,North,-999,0.0,0.0,40,0.00,,,-99.99,FreeWX 2.05,2013-03-28 04:50:00,
2013-03-28 01:00:00,47.7,24.6,30.21,North,-999,0.0,0.0,40,0.00,,,-99.99,FreeWX 2.05,2013-03-28 05:00:00,
2013-03-28 01:10:00,48.0,24.8,30.21,North,-999,0.0,0.0,40,0.00,,,-99.99,FreeWX 2.05,2013-03-28 05:10:00,
2013-03-28 01:20:00,48.2,25.0,30.21,North,-999,0.0,0.0,40,0.00,,,-99.99,FreeWX 2.05,2013-03-28 05:20:00,
2013-03-28 01:30:00,48.2,25.7,30.21,North,-999,0.0,0.0,41,0.00,,,-99.99,FreeWX 2.05,2013-03-28 05:30:00,
2013-03-28 01:40:00,48.2,25.7,30.21,North,-999,0.0,0.0,41,0.00,,,-99.99,FreeWX 2.05,2013-03-28 05:40:00,
2013-03-28 01:50:00,48.4,25.7,30.21,North,-999,0.0,0.0,41,0.00,,,-99.99,FreeWX 2.05,2013-03-28 05:50:00,
2013-03-28 02:00:00,48.4,26.4,30.21,North,-999,0.0,0.0,42,0.00,,,-99.99,FreeWX 2.05,2013-03-28 06:00:00,
2013-03-28 02:10:00,48.6,26.6,30.21,North,-999,0.0,0.0,42,0.00,,,-99.99,FreeWX 2.05,2013-03-28 06:10:00,
2013-03-28 02:20:00,48.6,26.6,30.21,North,-999,0.0,0.0,42,0.00,,,-99.99,FreeWX 2.05,2013-03-28 06:20:00,
2013-03-28 02:30:00,48.4,26.4,30.21,North,-999,0.0,0.0,42,0.00,,,-99.99,FreeWX 2.05,2013-03-28 06:30:00,
2013-03-28 02:40:00,48.2,26.8,30.21,North,-999,0.0,0.0,43,0.00,,,-99.99,FreeWX 2.05,2013-03-28 06:40:00,
2013-03-28 02:50:00,47.8,26.4,30.21,North,-999,0.0,0.0,43,0.00,,,-99.99,FreeWX 2.05,2013-03-28 06:50:00,
2013-03-28 03:00:00,47.3,25.9,30.21,North,-999,0.0,0.0,43,0.00,,,-99.99,FreeWX 2.05,2013-03-28 07:00:00,
2013-03-28 03:10:00,47.3,25.9,30.21,North,-999,0.0,0.0,43,0.00,,,-99.99,FreeWX 2.05,2013-03-28 07:10:00,
2013-03-28 03:20:00,47.8,27.0,30.21,North,-999,0.0,0.0,44,0.00,,,-99.99,FreeWX 2.05,2013-03-28 07:20:00,
2013-03-28 03:30:00,48.6,28.2,30.21,North,-999,0.0,2.7,45,0.00,,,-99.99,FreeWX 2.05,2013-03-28 07:30:00,
2013-03-28 03:40:00,48.9,29.1,30.21,North,-999,0.0,2.7,46,0.00,,,-99.99,FreeWX 2.05,2013-03-28 07:40:00,
2013-03-28 03:50:00,49.1,29.3,30.21,North,-999,0.0,0.0,46,0.00,,,-99.99,FreeWX 2.05,2013-03-28 07:50:00,
2013-03-28 04:00:00,49.3,29.8,30.21,North,-999,0.0,0.0,47,0.00,,,-99.99,FreeWX 2.05,2013-03-28 08:00:00,
2013-03-28 04:10:00,49.3,29.8,30.21,North,-999,0.0,0.0,47,0.00,,,-99.99,FreeWX 2.05,2013-03-28 08:10:00,
2013-03-28 04:20:00,49.3,29.8,30.21,North,-999,0.0,0.0,47,0.00,,,-99.99,FreeWX 2.05,2013-03-28 08:20:00,
2013-03-28 04:30:00,49.3,29.8,30.21,North,-999,0.0,0.0,47,0.00,,,-99.99,FreeWX 2.05,2013-03-28 08:30:00,
2013-03-28 04:40:00,49.3,30.4,30.21,North,-999,0.0,0.0,48,0.00,,,-99.99,FreeWX 2.05,2013-03-28 08:40:00,
2013-03-28 04:50:00,49.3,30.4,30.21,North,-999,0.0,0.0,48,0.00,,,-99.99,FreeWX 2.05,2013-03-28 08:50:00,
2013-03-28 05:00:00,49.1,30.2,30.21,North,-999,0.0,0.0,48,0.00,,,-99.99,FreeWX 2.05,2013-03-28 09:00:00,
2013-03-28 05:10:00,49.1,30.7,30.21,North,-999,0.0,0.0,49,0.00,,,-99.99,FreeWX 2.05,2013-03-28 09:10:00,
2013-03-28 05:20:00,49.1,30.7,30.21,North,-999,0.0,0.0,49,0.00,,,-99.99,FreeWX 2.05,2013-03-28 09:20:00,
2013-03-28 05:30:00,48.9,31.1,30.21,North,-999,0.0,0.0,50,0.00,,,-99.99,FreeWX 2.05,2013-03-28 09:30:00,
2013-03-28 05:40:00,48.7,30.9,30.21,North,-999,0.0,0.0,50,0.00,,,-99.99,FreeWX 2.05,2013-03-28 09:40:00,
2013-03-28 05:50:00,48.7,30.9,30.21,North,-999,0.0,0.0,50,0.00,,,-99.99,FreeWX 2.05,2013-03-28 09:50:00,
2013-03-28 06:00:00,48.6,31.3,30.21,North,-999,0.0,0.0,51,0.00,,,-99.99,FreeWX 2.05,2013-03-28 10:00:00,
2013-03-28 06:10:00,48.6,31.3,30.21,North,-999,0.0,0.0,51,0.00,,,-99.99,FreeWX 2.05,2013-03-28 10:10:00,
2013-03-28 06:20:00,48.6,31.3,30.21,North,-999,0.0,0.0,51,0.00,,,-99.99,FreeWX 2.05,2013-03-28 10:20:00,
2013-03-28 06:30:00,48.4,31.1,30.21,North,-999,0.0,0.0,51,0.00,,,-99.99,FreeWX 2.05,2013-03-28 10:30:00,
2013-03-28 06:40:00,48.2,30.9,30.21,North,-999,0.0,0.0,51,0.00,,,-99.99,FreeWX 2.05,2013-03-28 10:40:00,
2013-03-28 06:50:00,48.0,30.2,30.21,North,-999,0.0,0.0,50,0.00,,,-99.99,FreeWX 2.05,2013-03-28 10:50:00,
2013-03-28 07:00:00,47.8,30.0,30.21,North,-999,0.0,0.0,50,0.00,,,-99.99,FreeWX 2.05,2013-03-28 11:00:00,
2013-03-28 07:10:00,47.8,29.1,30.21,North,-999,0.0,0.0,48,0.00,,,-99.99,FreeWX 2.05,2013-03-28 11:10:00,
2013-03-28 07:20:00,47.7,28.4,30.21,North,-999,0.0,0.0,47,0.00,,,-99.99,FreeWX 2.05,2013-03-28 11:20:00,
2013-03-28 07:30:00,47.7,27.9,30.21,North,-999,0.0,0.0,46,0.00,,,-99.99,FreeWX 2.05,2013-03-28 11:30:00,
2013-03-28 07:40:00,47.7,26.8,30.21,North,-999,0.0,0.0,44,0.00,,,-99.99,FreeWX 2.05,2013-03-28 11:40:00,
2013-03-28 07:50:00,49.5,26.8,30.21,North,-999,0.0,0.0,41,0.00,,,-99.99,FreeWX 2.05,2013-03-28 11:50:00,
2013-03-28 08:00:00,50.4,26.4,30.21,North,-999,0.0,0.0,39,0.00,,,-99.99,FreeWX 2.05,2013-03-28 12:00:00,
2013-03-28 08:10:00,50.4,25.7,30.21,North,-999,0.0,0.0,38,0.00,,,-99.99,FreeWX 2.05,2013-03-28 12:10:00,
2013-03-28 08:30:00,51.4,26.1,30.21,North,-999,0.0,0.0,37,0.00,,,-99.99,FreeWX 2.05,2013-03-28 12:30:00,
2013-03-28 08:40:00,51.6,25.5,30.21,North,-999,0.0,3.1,36,0.00,,,-99.99,FreeWX 2.05,2013-03-28 12:40:00,
2013-03-28 08:50:00,52.2,24.6,30.21,North,-999,0.0,3.1,34,0.00,,,-99.99,FreeWX 2.05,2013-03-28 12:50:00,
2013-03-28 09:00:00,52.5,23.5,30.21,North,-999,0.0,3.6,32,0.00,,,-99.99,FreeWX 2.05,2013-03-28 13:00:00,
2013-03-28 09:10:00,53.4,23.5,30.21,North,-999,0.0,3.6,31,0.00,,,-99.99,FreeWX 2.05,2013-03-28 13:10:00,
2013-03-28 09:20:00,54.3,23.5,30.21,North,-999,0.0,3.1,30,0.00,,,-99.99,FreeWX 2.05,2013-03-28 13:20:00,
2013-03-28 09:30:00,55.0,23.4,30.21,SW,222,1.0,3.6,29,0.00,,,-99.99,FreeWX 2.05,2013-03-28 13:30:00,
2013-03-28 09:40:00,55.6,23.0,30.21,SW,234,2.0,4.9,28,0.00,,,-99.99,FreeWX 2.05,2013-03-28 13:40:00,
2013-03-28 09:50:00,56.3,22.8,30.21,WSW,238,1.0,4.5,27,0.00,,,-99.99,FreeWX 2.05,2013-03-28 13:50:00,
2013-03-28 10:00:00,57.2,23.5,30.21,WSW,240,1.0,4.5,27,0.00,,,-99.99,FreeWX 2.05,2013-03-28 14:00:00,
2013-03-28 10:10:00,57.6,23.9,30.21,SW,233,2.0,4.5,27,0.00,,,-99.99,FreeWX 2.05,2013-03-28 14:10:00,
2013-03-28 10:20:00,58.1,24.3,30.21,WSW,239,3.0,4.9,27,0.00,,,-99.99,FreeWX 2.05,2013-03-28 14:20:00,
2013-03-28 10:30:00,58.8,24.1,30.21,WSW,242,2.0,4.9,26,0.00,,,-99.99,FreeWX 2.05,2013-03-28 14:30:00,
2013-03-28 10:40:00,59.7,24.8,30.21,WSW,253,1.0,4.9,26,0.00,,,-99.99,FreeWX 2.05,2013-03-28 14:40:00,
2013-03-28 10:50:00,60.4,24.4,30.21,WSW,254,3.0,5.4,25,0.00,,,-99.99,FreeWX 2.05,2013-03-28 14:50:00,
2013-03-28 11:00:00,60.6,24.6,30.21,WSW,246,2.0,4.9,25,0.00,,,-99.99,FreeWX 2.05,2013-03-28 15:00:00,
2013-03-28 11:10:00,61.0,25.0,30.21,WSW,237,2.0,4.9,25,0.00,,,-99.99,FreeWX 2.05,2013-03-28 15:10:00,
2013-03-28 11:20:00,61.5,25.3,30.21,SW,235,2.0,5.4,25,0.00,,,-99.99,FreeWX 2.05,2013-03-28 15:20:00,
2013-03-28 11:31:00,61.7,24.6,30.21,WSW,247,2.0,6.7,24,0.00,,,-99.99,FreeWX 2.05,2013-03-28 15:31:00,
2013-03-28 11:41:00,62.2,25.0,30.21,SW,233,1.0,4.5,24,0.00,,,-99.99,FreeWX 2.05,2013-03-28 15:41:00,
2013-03-28 11:51:00,62.6,25.3,30.21,WSW,248,1.0,5.4,24,0.00,,,-99.99,FreeWX 2.05,2013-03-28 15:51:00,
2013-03-28 12:01:00,63.0,25.7,30.21,WSW,241,2.0,4.9,24,0.00,,,-99.99,FreeWX 2.05,2013-03-28 16:01:00,
2013-03-28 12:11:00,63.1,25.7,30.21,North,-999,0.0,4.0,24,0.00,,,-99.99,FreeWX 2.05,2013-03-28 16:11:00,
2013-03-28 12:21:00,63.9,25.3,30.21,West,275,2.0,4.5,23,0.00,,,-99.99,FreeWX 2.05,2013-03-28 16:21:00,
2013-03-28 12:31:00,64.2,25.7,30.21,SW,232,1.0,4.5,23,0.00,,,-99.99,FreeWX 2.05,2013-03-28 16:31:00,
2013-03-28 12:41:00,64.6,25.9,30.21,WSW,238,1.0,5.4,23,0.00,,,-99.99,FreeWX 2.05,2013-03-28 16:41:00,
2013-03-28 12:51:00,65.3,25.5,30.21,WSW,252,1.0,4.0,22,0.00,,,-99.99,FreeWX 2.05,2013-03-28 16:51:00,
2013-03-28 13:01:00,66.0,26.1,30.21,SE,133,3.0,9.2,22,0.00,,,-99.99,FreeWX 2.05,2013-03-28 17:01:00,
2013-03-28 13:11:00,67.1,27.0,30.21,ESE,121,3.0,7.8,22,0.00,,,-99.99,FreeWX 2.05,2013-03-28 17:11:00,
2013-03-28 13:21:00,66.9,26.8,30.21,South,183,2.0,7.4,22,0.00,,,-99.99,FreeWX 2.05,2013-03-28 17:21:00,
2013-03-28 13:31:00,66.9,26.8,30.21,SSE,149,2.0,7.8,22,0.00,,,-99.99,FreeWX 2.05,2013-03-28 17:31:00,
2013-03-28 13:41:00,66.7,26.6,30.21,SW,216,1.0,6.3,22,0.00,,,-99.99,FreeWX 2.05,2013-03-28 17:41:00,
2013-03-28 13:51:00,66.9,26.8,30.21,SE,140,3.0,7.8,22,0.00,,,-99.99,FreeWX 2.05,2013-03-28 17:51:00,
2013-03-28 14:01:00,67.3,27.1,30.21,SE,126,3.0,7.8,22,0.00,,,-99.99,FreeWX 2.05,2013-03-28 18:01:00,
2013-03-28 14:11:00,67.1,27.0,30.21,SSE,152,3.0,8.7,22,0.00,,,-99.99,FreeWX 2.05,2013-03-28 18:11:00,
2013-03-28 14:21:00,67.1,27.0,30.21,SE,136,4.0,9.6,22,0.00,,,-99.99,FreeWX 2.05,2013-03-28 18:21:00,
2013-03-28 14:31:00,67.5,27.3,30.21,ESE,117,3.0,8.7,22,0.00,,,-99.99,FreeWX 2.05,2013-03-28 18:31:00,
2013-03-28 14:41:00,67.8,27.5,30.21,ESE,119,4.0,8.7,22,0.00,,,-99.99,FreeWX 2.05,2013-03-28 18:41:00,
2013-03-28 14:51:00,68.4,28.0,30.21,SE,124,4.0,9.2,22,0.00,,,-99.99,FreeWX 2.05,2013-03-28 18:51:00,
2013-03-28 15:01:00,68.4,25.7,30.21,South,180,3.0,6.9,20,0.00,,,-99.99,FreeWX 2.05,2013-03-28 19:01:00,
2013-03-28 15:11:00,68.7,26.1,30.21,SE,127,4.0,11.0,20,0.00,,,-99.99,FreeWX 2.05,2013-03-28 19:11:00,
2013-03-28 15:21:00,69.1,25.2,30.21,SSE,149,3.0,9.2,19,0.00,,,-99.99,FreeWX 2.05,2013-03-28 19:21:00,
2013-03-28 15:31:00,69.4,25.3,30.21,SE,125,3.0,10.5,19,0.00,,,-99.99,FreeWX 2.05,2013-03-28 19:31:00,
2013-03-28 15:41:00,68.7,26.1,30.21,South,180,3.0,8.3,20,0.00,,,-99.99,FreeWX 2.05,2013-03-28 19:41:00,
2013-03-28 15:51:00,68.5,25.9,30.21,South,187,3.0,6.9,20,0.00,,,-99.99,FreeWX 2.05,2013-03-28 19:51:00,
2013-03-28 16:01:00,68.9,26.2,30.21,South,191,2.0,8.3,20,0.00,,,-99.99,FreeWX 2.05,2013-03-28 20:01:00,
2013-03-28 16:11:00,68.9,25.0,30.21,SSE,159,4.0,9.2,19,0.00,,,-99.99,FreeWX 2.05,2013-03-28 20:11:00,
2013-03-28 16:21:00,69.1,25.2,30.21,SSE,151,4.0,8.3,19,0.00,,,-99.99,FreeWX 2.05,2013-03-28 20:21:00,
2013-03-28 16:31:00,68.9,26.2,30.21,SSE,147,4.0,8.3,20,0.00,,,-99.99,FreeWX 2.05,2013-03-28 20:31:00,
2013-03-28 16:41:00,69.1,25.2,30.21,SE,145,4.0,8.7,19,0.00,,,-99.99,FreeWX 2.05,2013-03-28 20:41:00,
2013-03-28 16:51:00,68.2,25.5,30.21,SSE,153,4.0,10.1,20,0.00,,,-99.99,FreeWX 2.05,2013-03-28 20:51:00,
2013-03-28 17:01:00,67.8,25.3,30.21,SE,144,3.0,8.7,20,0.00,,,-99.99,FreeWX 2.05,2013-03-28 21:01:00,
2013-03-28 17:11:00,66.7,24.4,30.21,South,184,3.0,7.8,20,0.00,,,-99.99,FreeWX 2.05,2013-03-28 21:11:00,
2013-03-28 17:21:00,66.6,24.3,30.21,SSE,166,3.0,7.4,20,0.00,,,-99.99,FreeWX 2.05,2013-03-28 21:21:00,
2013-03-28 17:31:00,66.7,20.5,30.21,SE,124,4.0,10.5,17,0.00,,,-99.99,FreeWX 2.05,2013-03-28 21:31:00,
2013-03-28 17:51:00,66.0,19.9,30.21,ESE,111,4.0,9.6,17,0.00,,,-99.99,FreeWX 2.05,2013-03-28 21:51:00,
2013-03-28 18:01:00,65.1,20.5,30.21,SE,133,4.0,9.6,18,0.00,,,-99.99,FreeWX 2.05,2013-03-28 22:01:00,
2013-03-28 18:11:00,64.9,20.5,30.21,ESE,122,4.0,8.3,18,0.00,,,-99.99,FreeWX 2.05,2013-03-28 22:11:00,
2013-03-28 18:21:00,64.2,19.8,30.21,SSE,148,4.0,10.1,18,0.00,,,-99.99,FreeWX 2.05,2013-03-28 22:21:00,
2013-03-28 18:31:00,63.7,19.4,30.21,SE,145,3.0,8.3,18,0.00,,,-99.99,FreeWX 2.05,2013-03-28 22:31:00,
2013-03-28 18:51:00,62.2,18.1,30.21,South,169,3.0,7.8,18,0.00,,,-99.99,FreeWX 2.05,2013-03-28 22:51:00,
2013-03-28 19:01:00,62.2,18.1,30.21,SE,139,2.0,6.7,18,0.00,,,-99.99,FreeWX 2.05,2013-03-28 23:01:00,
2013-03-28 19:11:00,62.1,21.7,30.21,SSE,163,2.0,7.8,21,0.00,,,-99.99,FreeWX 2.05,2013-03-28 23:11:00,
2013-03-28 19:22:00,61.5,21.2,30.21,SE,131,3.0,8.7,21,0.00,,,-99.99,FreeWX 2.05,2013-03-28 23:22:00,
2013-03-28 19:32:00,61.2,20.8,30.21,SSE,161,2.0,6.7,21,0.00,,,-99.99,FreeWX 2.05,2013-03-28 23:32:00,
2013-03-28 19:42:00,60.8,20.7,30.21,SE,140,1.0,6.3,21,0.00,,,-99.99,FreeWX 2.05,2013-03-28 23:42:00,
2013-03-28 19:52:00,60.4,20.3,30.21,SE,133,1.0,5.8,21,0.00,,,-99.99,FreeWX 2.05,2013-03-28 23:52:00,
2013-03-28 20:02:00,60.3,20.1,30.21,SE,139,1.0,5.8,21,0.00,,,-99.99,FreeWX 2.05,2013-03-29 00:02:00,
2013-03-28 20:12:00,59.9,19.9,30.21,SE,140,1.0,4.0,21,0.00,,,-99.99,FreeWX 2.05,2013-03-29 00:12:00,
2013-03-28 20:22:00,59.5,20.7,30.21,North,-999,0.0,3.6,22,0.00,,,-99.99,FreeWX 2.05,2013-03-29 00:22:00,
2013-03-28 20:32:00,59.2,20.3,30.21,North,-999,0.0,2.7,22,0.00,,,-99.99,FreeWX 2.05,2013-03-29 00:32:00,
2013-03-28 20:42:00,59.0,20.3,30.21,North,-999,0.0,3.6,22,0.00,,,-99.99,FreeWX 2.05,2013-03-29 00:42:00,
2013-03-28 20:52:00,58.8,22.1,30.21,North,-999,0.0,3.1,24,0.00,,,-99.99,FreeWX 2.05,2013-03-29 00:52:00,
2013-03-28 21:02:00,58.6,21.9,30.21,North,-999,0.0,3.6,24,0.00,,,-99.99,FreeWX 2.05,2013-03-29 01:02:00,
2013-03-28 21:12:00,58.5,22.8,30.21,North,-999,0.0,3.1,25,0.00,,,-99.99,FreeWX 2.05,2013-03-29 01:12:00,
2013-03-28 21:22:00,58.3,22.6,30.21,North,-999,0.0,4.0,25,0.00,,,-99.99,FreeWX 2.05,2013-03-29 01:22:00,
2013-03-28 21:32:00,58.3,22.6,30.21,North,-999,0.0,0.0,25,0.00,,,-99.99,FreeWX 2.05,2013-03-29 01:32:00,
2013-03-28 21:42:00,58.1,23.4,30.21,North,-999,0.0,0.0,26,0.00,,,-99.99,FreeWX 2.05,2013-03-29 01:42:00,
2013-03-28 21:52:00,57.9,23.2,30.21,North,-999,0.0,0.0,26,0.00,,,-99.99,FreeWX 2.05,2013-03-29 01:52:00,
2013-03-28 22:02:00,57.6,23.9,30.21,North,-999,0.0,3.1,27,0.00,,,-99.99,FreeWX 2.05,2013-03-29 02:02:00,
2013-03-28 22:12:00,57.6,24.6,30.21,North,-999,0.0,3.6,28,0.00,,,-99.99,FreeWX 2.05,2013-03-29 02:12:00,
2013-03-28 22:22:00,57.6,24.6,30.21,North,-999,0.0,3.6,28,0.00,,,-99.99,FreeWX 2.05,2013-03-29 02:22:00,
2013-03-28 22:32:00,57.6,25.5,30.21,North,-999,0.0,4.0,29,0.00,,,-99.99,FreeWX 2.05,2013-03-29 02:32:00,
2013-03-28 22:42:00,57.4,25.3,30.21,North,-999,0.0,4.0,29,0.00,,,-99.99,FreeWX 2.05,2013-03-29 02:42:00,
2013-03-28 22:52:00,57.4,25.3,30.21,North,-999,0.0,3.6,29,0.00,,,-99.99,FreeWX 2.05,2013-03-29 02:52:00,
2013-03-28 23:12:00,56.8,25.7,30.21,North,-999,0.0,0.0,30,0.00,,,-99.99,FreeWX 2.05,2013-03-29 03:12:00,
2013-03-28 23:22:00,56.5,25.3,30.21,North,-999,0.0,0.0,30,0.00,,,-99.99,FreeWX 2.05,2013-03-29 03:22:00,
2013-03-28 23:32:00,56.1,25.9,30.21,North,-999,0.0,0.0,31,0.00,,,-99.99,FreeWX 2.05,2013-03-29 03:32:00,
2013-03-28 23:42:00,55.4,26.1,30.21,North,-999,0.0,0.0,32,0.00,,,-99.99,FreeWX 2.05,2013-03-29 03:42:00,
2013-03-28 23:52:00,54.9,26.2,30.21,North,-999,0.0,0.0,33,0.00,,,-99.99,FreeWX 2.05,2013-03-29 03:52:00,